Location: Unspecified
(47.9110°N, 14.3980°E)
Time: 16:35:41
(UTC+00:00)

Cosmos 44 - Pass Details

Date: 06 August 2020
Orbit: 583 x 779 km, 65.1° (Epoch: 18 September)

Event Time Altitude Azimuth Distance (km) Brightness Sun altitude
Rises 21:41:22 0° 324° (NW) 3,012 7.9 -22.8°
Reaches altitude 10° 21:43:41 10° 330° (NNW) 2,127 6.9 -23.0°
Maximum altitude 21:48:26 51° 46° (NE) 890 3.9 -23.3°
Enters shadow 21:49:44 40° 92° (E) 1,045 4.0 -23.4°
